When you browse on this site, cookies collect data to enhance your experience and personalize the content and advertising you see.
Visit our Privacy Policy to learn more. By continuing to use the site, you agree to this use of cookies and data.
  • In Hungary
  • List of Countries
  • For 7 days
  • Water Temperature
  • Satellite Maps
  • Weather Map
  • News
  • Weather Widgets
  • user-avatar
    Login

    Hourly Weather Johor Bahru

    Today, 17 November, Saturday

    Time Temperature Precipitation Wind Pressure Humidity
    00:00 +30°C° 0 mm 3 mps 757 mmHg 76%
    01:00 +30°C° 0 mm 2 mps 757 mmHg 74%
    02:00 +30°C° 1.1 mm 2 mps 757 mmHg 75%
    03:00 +30°C° 1.1 mm 3 mps 757 mmHg 76%
    04:00 +30°C° 1.1 mm 3 mps 757 mmHg 77%
    05:00 +30°C° 0.3 mm 3 mps 757 mmHg 77%
    06:00 +30°C° 0.3 mm 4 mps 757 mmHg 76%
    07:00 +30°C° 0 mm 4 mps 757 mmHg 75%
    08:00 +32°C° 1 mm 4 mps 757 mmHg 70%
    09:00 +33°C° 1 mm 4 mps 758 mmHg 65%
    10:00 +34°C° 1 mm 4 mps 758 mmHg 60%
    11:00 +35°C° 0.2 mm 3 mps 757 mmHg 58%
    12:00 +35°C° 0.2 mm 3 mps 757 mmHg 56%
    13:00 +35°C° 0 mm 2 mps 757 mmHg 55%
    14:00 +35°C° 0 mm 3 mps 757 mmHg 57%
    15:00 +34°C° 0 mm 3 mps 756 mmHg 59%
    16:00 +34°C° 0 mm 4 mps 756 mmHg 61%
    17:00 +33°C° 0 mm 4 mps 756 mmHg 65%
    18:00 +32°C° 0 mm 4 mps 756 mmHg 68%
    19:00 +31°C° 0 mm 3 mps 757 mmHg 71%
    20:00 +31°C° 0 mm 3 mps 757 mmHg 71%
    21:00 +30°C° 0 mm 3 mps 757 mmHg 71%
    22:00 +30°C° 0 mm 3 mps 757 mmHg 72%
    23:00 +30°C° 0.3 mm 4 mps 757 mmHg 72%

    Tomorrow, 18 November, Sunday

    Time Temperature Precipitation Wind Pressure Humidity
    00:00 +30°C° 0.3 mm 4 mps 757 mmHg 73%
    01:00 +30°C° 0.3 mm 4 mps 757 mmHg 74%
    02:00 +30°C° 0.4 mm 4 mps 757 mmHg 75%
    03:00 +30°C° 0.4 mm 4 mps 756 mmHg 76%
    04:00 +30°C° 0.4 mm 4 mps 756 mmHg 77%
    05:00 +30°C° 3 mm 3 mps 756 mmHg 77%
    06:00 +30°C° 3 mm 3 mps 757 mmHg 77%
    07:00 +30°C° 3 mm 2 mps 757 mmHg 78%
    08:00 +30°C° 0.9 mm 2 mps 757 mmHg 74%
    09:00 +31°C° 0.9 mm 3 mps 758 mmHg 70%
    10:00 +33°C° 0.9 mm 3 mps 758 mmHg 66%
    11:00 +33°C° 0 mm 3 mps 758 mmHg 63%
    12:00 +34°C° 0 mm 4 mps 758 mmHg 60%
    13:00 +34°C° 0 mm 4 mps 757 mmHg 57%
    14:00 +34°C° 0 mm 4 mps 757 mmHg 58%
    15:00 +34°C° 0 mm 4 mps 756 mmHg 60%
    16:00 +34°C° 0 mm 4 mps 756 mmHg 61%
    17:00 +33°C° 0.6 mm 4 mps 756 mmHg 65%
    18:00 +32°C° 0.6 mm 4 mps 756 mmHg 69%
    19:00 +30°C° 0.6 mm 4 mps 757 mmHg 73%
    20:00 +30°C° 1.3 mm 4 mps 757 mmHg 75%
    21:00 +30°C° 1.3 mm 4 mps 758 mmHg 77%
    22:00 +29°C° 1.3 mm 4 mps 758 mmHg 80%
    23:00 +29°C° 1.1 mm 4 mps 758 mmHg 79%

    Day after tomorrow, 19 November, Monday

    Time Temperature Precipitation Wind Pressure Humidity
    00:00 +29°C° 1.1 mm 3 mps 758 mmHg 78%
    01:00 +29°C° 1.1 mm 3 mps 758 mmHg 78%
    02:00 +29°C° 0.1 mm 2 mps 757 mmHg 78%
    03:00 +29°C° 0.1 mm 2 mps 757 mmHg 78%
    04:00 +29°C° 0.1 mm 1 mps 757 mmHg 79%
    05:00 +29°C° 0.1 mm 1 mps 757 mmHg 77%
    06:00 +29°C° 0.1 mm 1 mps 758 mmHg 75%
    07:00 +30°C° 0.1 mm 1 mps 758 mmHg 74%
    08:00 +31°C° 0.2 mm 1 mps 758 mmHg 68%
    09:00 +32°C° 0.2 mm 1 mps 758 mmHg 63%
    10:00 +33°C° 0.2 mm 1 mps 759 mmHg 57%
    11:00 +33°C° 0 mm 1 mps 758 mmHg 57%
    12:00 +34°C° 0 mm 1 mps 758 mmHg 56%
    13:00 +34°C° 0 mm 1 mps 757 mmHg 55%
    14:00 +34°C° 0 mm 1 mps 757 mmHg 57%
    15:00 +33°C° 0 mm 1 mps 756 mmHg 59%
    16:00 +33°C° 0 mm 1 mps 755 mmHg 61%
    17:00 +32°C° 0.6 mm 1 mps 756 mmHg 65%
    18:00 +31°C° 0.6 mm 2 mps 757 mmHg 68%
    19:00 +30°C° 0.6 mm 2 mps 757 mmHg 72%
    20:00 +30°C° 2 mm 2 mps 758 mmHg 74%
    21:00 +29°C° 2 mm 2 mps 758 mmHg 77%
    22:00 +29°C° 2 mm 2 mps 759 mmHg 80%
    23:00 +29°C° 1.8 mm 2 mps 759 mmHg 80%

    20 November, Tuesday

    Time Temperature Precipitation Wind Pressure Humidity
    00:00 +29°C° 1.8 mm 2 mps 758 mmHg 80%
    01:00 +28°C° 1.8 mm 3 mps 758 mmHg 80%
    02:00 +28°C° 0.7 mm 3 mps 757 mmHg 80%
    03:00 +28°C° 0.7 mm 3 mps 757 mmHg 80%
    04:00 +28°C° 0.7 mm 3 mps 756 mmHg 80%
    05:00 +29°C° 0.3 mm 4 mps 757 mmHg 79%
    06:00 +29°C° 0.3 mm 4 mps 757 mmHg 78%
    07:00 +29°C° 0.3 mm 4 mps 758 mmHg 77%
    08:00 +30°C° 0 mm 5 mps 758 mmHg 72%
    09:00 +32°C° 0 mm 5 mps 758 mmHg 67%
    10:00 +34°C° 0 mm 5 mps 759 mmHg 62%
    11:00 +34°C° 0 mm 5 mps 758 mmHg 61%
    12:00 +34°C° 0 mm 4 mps 758 mmHg 60%
    13:00 +35°C° 0 mm 3 mps 757 mmHg 59%
    14:00 +34°C° 0.4 mm 3 mps 756 mmHg 61%
    15:00 +34°C° 0.4 mm 3 mps 756 mmHg 62%
    16:00 +33°C° 0.4 mm 3 mps 755 mmHg 64%
    17:00 +33°C° 0.3 mm 3 mps 756 mmHg 67%
    18:00 +31°C° 0.3 mm 3 mps 756 mmHg 70%
    19:00 +30°C° 0.3 mm 3 mps 757 mmHg 74%
    20:00 +30°C° 0.6 mm 3 mps 757 mmHg 74%
    21:00 +30°C° 0.6 mm 3 mps 758 mmHg 75%
    22:00 +30°C° 0.6 mm 3 mps 758 mmHg 75%
    23:00 +29°C° 0.6 mm 3 mps 758 mmHg 77%

    21 November, Wednesday

    Time Temperature Precipitation Wind Pressure Humidity
    00:00 +29°C° 0.6 mm 3 mps 757 mmHg 80%
    01:00 +29°C° 0.6 mm 3 mps 757 mmHg 82%
    02:00 +28°C° 1.5 mm 3 mps 757 mmHg 82%
    03:00 +28°C° 1.5 mm 3 mps 756 mmHg 81%
    04:00 +28°C° 1.5 mm 3 mps 756 mmHg 81%
    05:00 +28°C° 1.9 mm 3 mps 757 mmHg 80%
    06:00 +29°C° 1.9 mm 2 mps 757 mmHg 80%
    07:00 +29°C° 1.9 mm 2 mps 758 mmHg 79%
    08:00 +29°C° 0.7 mm 2 mps 758 mmHg 77%
    09:00 +30°C° 0.7 mm 2 mps 758 mmHg 74%
    10:00 +30°C° 0.7 mm 2 mps 758 mmHg 72%
    11:00 +31°C° 0 mm 2 mps 758 mmHg 70%
    12:00 +31°C° 0 mm 2 mps 757 mmHg 67%
    13:00 +33°C° 0 mm 3 mps 757 mmHg 65%
    14:00 +31°C° 0 mm 2 mps 756 mmHg 65%
    15:00 +31°C° 0 mm 2 mps 756 mmHg 65%
    16:00 +31°C° 0 mm 2 mps 755 mmHg 65%
    17:00 +31°C° 0.1 mm 2 mps 756 mmHg 67%
    18:00 +30°C° 0.1 mm 1 mps 757 mmHg 69%
    19:00 +30°C° 0.1 mm 1 mps 757 mmHg 72%
    20:00 +30°C° 0.5 mm 1 mps 758 mmHg 73%
    21:00 +29°C° 0.5 mm 2 mps 758 mmHg 74%
    22:00 +29°C° 0.5 mm 2 mps 759 mmHg 75%
    23:00 +29°C° 1.6 mm 2 mps 758 mmHg 75%

    22 November, Thursday

    Time Temperature Precipitation Wind Pressure Humidity
    00:00 +29°C° 1.6 mm 3 mps 758 mmHg 74%
    01:00 +29°C° 1.6 mm 3 mps 757 mmHg 74%
    02:00 +29°C° 1 mm 4 mps 757 mmHg 74%
    03:00 +29°C° 1 mm 4 mps 756 mmHg 74%
    04:00 +29°C° 1 mm 5 mps 756 mmHg 74%
    05:00 +29°C° 0.5 mm 5 mps 757 mmHg 76%
    06:00 +29°C° 0.5 mm 5 mps 757 mmHg 77%
    07:00 +29°C° 0.5 mm 5 mps 758 mmHg 78%
    08:00 +30°C° 0.6 mm 5 mps 758 mmHg 75%
    09:00 +30°C° 0.6 mm 5 mps 758 mmHg 72%
    10:00 +32°C° 0.6 mm 5 mps 759 mmHg 69%
    11:00 +33°C° 0.8 mm 5 mps 758 mmHg 66%
    12:00 +33°C° 0.8 mm 5 mps 757 mmHg 63%
    13:00 +34°C° 0.8 mm 4 mps 757 mmHg 59%
    14:00 +34°C° 1.4 mm 4 mps 756 mmHg 60%
    15:00 +34°C° 1.4 mm 4 mps 756 mmHg 61%
    16:00 +33°C° 1.4 mm 4 mps 756 mmHg 62%
    17:00 +33°C° 1 mm 3 mps 756 mmHg 65%
    18:00 +31°C° 1 mm 3 mps 757 mmHg 68%
    19:00 +30°C° 1 mm 3 mps 757 mmHg 71%
    20:00 +30°C° 0.6 mm 3 mps 758 mmHg 72%
    21:00 +30°C° 0.6 mm 3 mps 758 mmHg 73%
    22:00 +30°C° 0.6 mm 3 mps 758 mmHg 74%
    23:00 +29°C° 0.6 mm 3 mps 758 mmHg 76%
    Show more